SCP
0 0 0 0 0 0 0 0 0 0 0 0 0 0 0 0 0 0 0 0 0 0 0 0 0 0 0 0 0 0 0 0 0 0 0 0 0 0
0 0 0 0 0 0 0 0 0 0 0 0 0 0 0 0 0 0 0 0 0 0 0 0 0 0 0 0 0 0 0 0 0 0 0 0 0 0
0 0 0 0 0 0 0 0 0 0 0 0 0 0 0 0 0 0 0 0 0 0 0 0 0 0 0 0 0 0 0 0 0 0 0 0 0 0
0 0 0 0 0 0 0 0 0 0 0 0 0 0 0 0 0 0 0 0 0 0 0 0 0 0 0 0 0 0 0 0 0 0 0 0 0 0
0 0 0 0 0 0 0 0 0 0 0 0 0 0 0 0 0 0 0 0 0 0 0 0 0 0 0 0 0 0 0 0 0 0 0 0 0 0
0 0 0 0 0 0 0 0 0 0 0 0 0 0 0 0 0 0 0 0 0 0 0 0 0 0 0 0 0 0 0 0 0 0 0 0 0 0
0 0 0 0 0 0 0 0 0 0 0 0 0 0 0 0 0 0 0 0 0 0 0 0 0 0 0 0 0 0 0 0 0 0 0 0 0 0
0 0 0 0 0 0 0 0 0 0 0 0 0 0 0 0 0 0 0 0 0 0 0 0 0 0 0 0 0 0 0 0 0 0 0 0 0 0
0 0 0 0 0 0 0 0 0 0 0 0 0 0 0 0 0 0 0 0 0 0 0 0 0 0 0 0 0 0 0 0 0 0 0 0 0 0
0 0 0 0 0 0 0 0 0 0 0 0 0 0 0 0 0 0 0 0 0 0 0 0 0 0 0 0 0 0 0 0 0 0 0 0 0 0
0 0 0 0 0 0 0 0 0 0 0 0 0 0 0 0 0 0 0 0 0 0 0 0 0 0 0 0 0 0 0 0 0 0 0 0 0 0
0 0 0 0 0 0 0 0 0 0 0 0 0 0 0 0 0 0 0 0 0 0 0 0 0 0 0 0 0 0 0 0 0 0 0 0 0 0
0 0 0 0 0 0 0 0 0 0 0 0 0 0 0 0 0 0 0 0 0 0 0 0 0 0 0 0 0 0 0 0 0 0 0 0 0 0
0 0 0 0 0 0 0 0 0 0 0 0 0 0 0 0 0 0 0 0 0 0 0 0 0 0 0 0 0 0 0 0 0 0 0 0 0 0
-0 0 0 0 -0 -0 -0 0 -0 -0 -0 -0 -0 0 0 0 0 0 0 0 0 0 0 0 0 0 0 0 0 0 0 0 0 0 0 0 0 0
0 -0 -0 -0 -0 -0 -0 -0 -0 -0 -0 -0 -0 -0 0 0 0 0 0 0 0 0 0 0 0 0 0 0 0 0 0 0 0 0 0 0 0 0
-0 -0 -0 -0 -0 -0 -0 -0 -0 -0 -0 -0 -0 -0 -0 -0 0 0 0 0 0 0 0 0 0 0 0 0 0 0 0 0 0 0 0 0 0 0
-0 -0 -0 -0 -0 -0 -0 -0 -0 -0 -0 -0 0 0 0 0 0 0 0 0 0 0 0 0 0 0 0 0 0 0 0 0 0 0 0 0 0 0
-0 -0 -0 -0 -0 -0 -0 -0 -0 0 0 0 0 0 0 0 0 0 0 0 0 0 0 0 0 0 0 0 0 0 0 0 0 0 0 0 0 -0
0 0 0 0 0 0 0 0 0 0 0 0 0 0 0 0 0 0 0 0 0 0 0 0 0 0 0 0 0 0 0 0 0 0 0 0 -0 -0
0 0 0 0 0 0 0 0 0 0 0 0 0 0 0 0 0 0 0 0 0 0 0 0 0 0 0 0 0 0 0 0 0 -0 -0 0 -0 0
0 0 0 0 0 0 0 0 0 0 0 0 0 0 0 0 0 0 0 0 0 0 0 0 0 0 0 0 0 -0 0 0 -0 0 -0 -0 -0 -0
0 0 0 0 0 0 0 0 0 0 0 0 0 0 0 0 0 0 0 0 0 0 0 0 -0 -0 -0 -0 -0 -0 -0 -0 -0 -0 -0 -0 -0 -0
Wind_Speed_500mb
61 54 45 37 31 28 38 49 45 49 54 54 48 48 48 52 56 58 60 60 62 66 68 72 76 76 74 73 73 75 73 70 69 65 65 66 70 74
50 45 37 31 42 55 41 48 49 50 59 59 59 58 60 63 66 69 71 70 72 74 75 79 81 80 78 77 77 78 77 75 71 68 67 68 72 75
35 37 39 41 30 36 45 48 49 53 63 68 67 65 69 71 72 74 77 80 82 81 83 85 87 86 83 79 80 81 78 79 78 71 69 72 75 77
30 30 27 33 30 45 45 49 53 56 65 75 76 78 80 76 81 82 84 88 91 92 87 89 89 87 86 82 80 79 82 79 72 79 81 83 77 76
18 27 27 41 41 44 49 53 56 60 64 77 91 87 90 84 89 91 95 97 99 95 90 88 88 87 86 85 80 84 82 73 77 86 92 82 76 77
25 34 36 38 40 47 51 53 60 70 74 80 89 94 96 95 94 98 103 100 103 97 95 94 93 92 92 89 83 77 79 81 86 86 89 89 81 82
22 29 36 43 44 52 62 59 63 67 72 80 89 94 100 100 100 100 103 107 109 107 103 101 92 87 88 81 79 84 82 86 84 83 85 81 81 83
33 35 41 44 44 45 49 53 55 62 71 78 88 95 101 99 99 100 102 104 108 93 84 102 93 104 103 97 88 83 83 81 77 74 80 75 77 81
31 37 41 43 46 51 54 57 58 58 60 68 81 88 97 93 94 100 100 98 112 106 95 116 102 109 107 104 96 86 82 71 71 70 68 72 75 81
33 36 39 42 44 51 58 63 66 68 72 76 83 90 89 87 84 91 101 107 117 114 99 111 105 112 110 108 95 86 69 66 61 61 64 69 78 82
40 44 49 52 56 62 69 75 77 78 79 77 76 82 85 85 84 89 99 92 106 106 86 86 102 105 101 98 93 77 67 51 62 58 69 71 71 79
50 53 54 58 60 61 63 68 76 77 79 85 87 91 89 90 84 80 87 93 96 105 84 70 91 91 79 74 68 49 65 75 70 75 80 72 72 75
60 63 65 66 66 65 62 58 61 73 82 83 88 89 84 73 71 76 80 86 90 97 96 90 100 94 87 91 100 92 86 82 76 84 79 74 61 74
67 69 70 71 71 72 71 72 76 81 86 91 93 94 94 90 88 97 98 94 91 110 92 78 90 89 89 79 86 99 96 88 86 85 74 76 82 75
70 72 72 75 79 79 81 83 88 91 93 95 95 89 82 96 101 101 96 98 91 84 101 93 98 91 83 78 86 97 90 86 83 70 84 81 88 79
76 77 80 83 86 89 94 93 92 88 84 78 79 88 92 93 97 90 88 79 78 80 79 83 68 71 71 76 77 84 74 84 86 76 78 85 86 78
81 86 92 96 98 98 97 94 93 90 83 81 85 83 89 92 93 82 78 76 81 77 69 65 59 59 59 60 68 67 72 74 71 72 77 90 89 77
89 95 97 97 98 100 102 103 100 98 96 96 97 97 97 95 90 79 76 66 72 72 69 65 60 53 54 55 52 54 62 63 68 71 72 83 93 73
96 97 96 94 93 93 93 94 96 93 92 91 93 95 91 86 82 78 62 83 69 66 64 58 50 44 48 57 63 39 50 65 67 70 71 77 89 89
86 82 80 79 80 82 85 86 89 87 85 88 90 89 84 77 80 75 71 71 69 61 56 50 39 37 40 46 59 61 48 59 58 69 78 81 83 78
78 72 68 69 72 75 76 76 74 77 81 86 88 86 85 74 74 74 73 61 56 50 47 39 35 35 37 44 53 65 52 48 52 60 71 71 78 79
71 68 66 66 67 68 70 70 72 74 80 84 86 83 74 62 68 60 56 51 45 40 35 32 31 33 38 42 50 57 63 59 51 49 37 39 47 55
62 59 59 61 62 63 64 65 63 66 74 79 80 71 64 62 54 50 45 38 33 30 29 30 34 35 35 38 44 48 52 56 60 52 31 27 35 41
Wind_Direction_500mb
234 234 233 233 235 259 283 277 273 274 282 286 287 291 293 291 289 287 288 288 287 287 290 291 290 290 289 288 287 285 285 285 284 282 283 281 282 283
226 225 222 235 266 267 270 275 275 275 272 280 287 289 288 287 287 287 289 288 287 290 291 289 289 289 288 287 288 286 286 285 284 283 280 280 281 282
223 233 239 241 240 271 275 275 281 283 282 286 288 290 287 287 286 287 287 287 289 289 288 288 288 289 288 288 287 286 284 285 286 283 281 282 282 281
239 252 252 248 266 272 279 287 285 288 289 291 293 293 290 290 290 288 289 288 289 289 289 288 287 287 285 286 286 285 284 286 283 284 285 285 283 282
266 263 280 281 279 286 285 290 292 292 292 294 292 292 292 292 293 293 292 291 290 291 290 289 288 287 283 285 284 284 283 284 286 286 284 284 284 283
286 287 285 291 293 293 290 293 295 292 293 288 290 294 294 297 296 296 295 295 295 295 293 291 289 285 281 278 280 279 281 285 288 286 282 281 283 283
295 297 291 287 289 289 290 297 295 294 294 293 293 296 296 299 299 300 298 300 297 296 295 294 291 287 282 281 282 285 285 287 287 284 281 282 284 284
301 289 285 291 302 304 295 293 293 296 297 297 297 296 295 298 299 298 298 298 295 294 291 291 289 289 288 286 288 286 290 288 286 281 282 283 283 283
323 323 320 313 307 304 299 297 297 296 294 296 293 293 296 298 299 296 293 291 290 291 289 289 288 288 289 289 289 289 289 287 288 284 281 282 282 283
332 329 326 323 322 319 317 314 311 309 307 306 304 303 302 302 297 295 295 294 293 291 284 281 288 286 290 289 289 290 288 290 284 284 283 284 285 285
347 344 342 338 336 333 325 322 318 316 314 307 301 298 297 295 294 294 289 286 286 286 285 282 288 288 288 288 288 290 288 280 287 285 287 288 288 288
354 351 349 348 345 341 336 329 324 324 317 308 305 304 304 304 302 296 293 285 284 286 289 279 284 283 281 285 288 285 283 292 288 295 299 294 293 288
3 358 356 352 347 342 337 331 322 317 317 314 310 306 304 307 311 305 294 285 281 280 289 285 280 274 272 280 288 294 296 298 297 301 304 301 295 297
3 357 352 348 342 339 336 334 330 328 327 325 323 320 318 317 308 299 291 289 290 282 284 284 277 279 277 275 286 294 295 299 302 309 304 304 301 300
357 352 346 344 342 341 341 341 339 339 338 335 331 327 318 313 311 310 307 302 299 288 282 277 270 275 276 280 286 290 296 299 302 304 305 305 303 309
351 347 347 346 345 345 345 346 346 345 342 335 328 327 328 327 324 325 322 319 311 305 297 279 275 279 281 284 286 288 295 296 307 306 308 306 307 311
347 345 348 349 349 350 350 349 348 345 343 337 334 330 329 328 328 329 329 326 315 315 303 303 304 296 292 288 287 294 301 302 305 310 312 309 310 314
347 348 347 347 347 347 346 344 343 341 340 339 337 337 335 332 331 331 337 329 328 324 319 313 310 305 298 293 294 305 302 305 310 313 309 309 311 317
344 343 342 341 341 342 341 339 338 339 339 339 338 337 336 334 334 333 330 327 326 323 317 313 312 306 301 301 309 306 300 308 313 310 313 314 311 316
338 337 338 339 339 339 338 338 337 338 338 339 337 337 336 333 333 335 325 325 327 321 318 319 311 304 306 306 308 315 323 320 320 320 317 313 311 316
335 335 336 336 336 336 337 336 336 337 340 338 337 335 335 331 329 322 327 328 322 318 318 316 314 313 310 311 312 320 326 332 327 316 314 311 314 320
334 332 334 334 335 335 335 335 338 340 342 342 340 338 336 336 329 332 332 328 326 325 325 327 324 323 324 325 326 329 329 331 328 324 317 296 297 296
328 327 329 331 333 334 334 336 337 340 344 345 342 343 345 340 339 336 337 339 343 346 345 342 342 340 336 336 339 341 337 336 339 346 350 333 309 298
Wind_Speed_850mb
61 54 45 37 31 28 38 49 45 49 54 54 48 48 48 52 56 58 60 60 62 66 68 72 76 76 74 73 73 75 73 70 69 65 65 66 70 74
50 45 37 31 42 55 41 48 49 50 59 59 59 58 60 63 66 69 71 70 72 74 75 79 81 80 78 77 77 78 77 75 71 68 67 68 72 75
35 37 39 41 30 36 45 48 49 53 63 68 67 65 69 71 72 74 77 80 82 81 83 85 87 86 83 79 80 81 78 79 78 71 69 72 75 77
30 30 27 33 30 45 45 49 53 56 65 75 76 78 80 76 81 82 84 88 91 92 87 89 89 87 86 82 80 79 82 79 72 79 81 83 77 76
18 27 27 41 41 44 49 53 56 60 64 77 91 87 90 84 89 91 95 97 99 95 90 88 88 87 86 85 80 84 82 73 77 86 92 82 76 77
25 34 36 38 40 47 51 53 60 70 74 80 89 94 96 95 94 98 103 100 103 97 95 94 93 92 92 89 83 77 79 81 86 86 89 89 81 82
22 29 36 43 44 52 62 59 63 67 72 80 89 94 100 100 100 100 103 107 109 107 103 101 92 87 88 81 79 84 82 86 84 83 85 81 81 83
33 35 41 44 44 45 49 53 55 62 71 78 88 95 101 99 99 100 102 104 108 93 84 102 93 104 103 97 88 83 83 81 77 74 80 75 77 81
31 37 41 43 46 51 54 57 58 58 60 68 81 88 97 93 94 100 100 98 112 106 95 116 102 109 107 104 96 86 82 71 71 70 68 72 75 81
33 36 39 42 44 51 58 63 66 68 72 76 83 90 89 87 84 91 101 107 117 114 99 111 105 112 110 108 95 86 69 66 61 61 64 69 78 82
40 44 49 52 56 62 69 75 77 78 79 77 76 82 85 85 84 89 99 92 106 106 86 86 102 105 101 98 93 77 67 51 62 58 69 71 71 79
50 53 54 58 60 61 63 68 76 77 79 85 87 91 89 90 84 80 87 93 96 105 84 70 91 91 79 74 68 49 65 75 70 75 80 72 72 75
60 63 65 66 66 65 62 58 61 73 82 83 88 89 84 73 71 76 80 86 90 97 96 90 100 94 87 91 100 92 86 82 76 84 79 74 61 74
67 69 70 71 71 72 71 72 76 81 86 91 93 94 94 90 88 97 98 94 91 110 92 78 90 89 89 79 86 99 96 88 86 85 74 76 82 75
70 72 72 75 79 79 81 83 88 91 93 95 95 89 82 96 101 101 96 98 91 84 101 93 98 91 83 78 86 97 90 86 83 70 84 81 88 79
76 77 80 83 86 89 94 93 92 88 84 78 79 88 92 93 97 90 88 79 78 80 79 83 68 71 71 76 77 84 74 84 86 76 78 85 86 78
81 86 92 96 98 98 97 94 93 90 83 81 85 83 89 92 93 82 78 76 81 77 69 65 59 59 59 60 68 67 72 74 71 72 77 90 89 77
89 95 97 97 98 100 102 103 100 98 96 96 97 97 97 95 90 79 76 66 72 72 69 65 60 53 54 55 52 54 62 63 68 71 72 83 93 73
96 97 96 94 93 93 93 94 96 93 92 91 93 95 91 86 82 78 62 83 69 66 64 58 50 44 48 57 63 39 50 65 67 70 71 77 89 89
86 82 80 79 80 82 85 86 89 87 85 88 90 89 84 77 80 75 71 71 69 61 56 50 39 37 40 46 59 61 48 59 58 69 78 81 83 78
78 72 68 69 72 75 76 76 74 77 81 86 88 86 85 74 74 74 73 61 56 50 47 39 35 35 37 44 53 65 52 48 52 60 71 71 78 79
71 68 66 66 67 68 70 70 72 74 80 84 86 83 74 62 68 60 56 51 45 40 35 32 31 33 38 42 50 57 63 59 51 49 37 39 47 55
62 59 59 61 62 63 64 65 63 66 74 79 80 71 64 62 54 50 45 38 33 30 29 30 34 35 35 38 44 48 52 56 60 52 31 27 35 41
Wind_Direction_850mb
234 234 233 233 235 259 283 277 273 274 282 286 287 291 293 291 289 287 288 288 287 287 290 291 290 290 289 288 287 285 285 285 284 282 283 281 282 283
226 225 222 235 266 267 270 275 275 275 272 280 287 289 288 287 287 287 289 288 287 290 291 289 289 289 288 287 288 286 286 285 284 283 280 280 281 282
223 233 239 241 240 271 275 275 281 283 282 286 288 290 287 287 286 287 287 287 289 289 288 288 288 289 288 288 287 286 284 285 286 283 281 282 282 281
239 252 252 248 266 272 279 287 285 288 289 291 293 293 290 290 290 288 289 288 289 289 289 288 287 287 285 286 286 285 284 286 283 284 285 285 283 282
266 263 280 281 279 286 285 290 292 292 292 294 292 292 292 292 293 293 292 291 290 291 290 289 288 287 283 285 284 284 283 284 286 286 284 284 284 283
286 287 285 291 293 293 290 293 295 292 293 288 290 294 294 297 296 296 295 295 295 295 293 291 289 285 281 278 280 279 281 285 288 286 282 281 283 283
295 297 291 287 289 289 290 297 295 294 294 293 293 296 296 299 299 300 298 300 297 296 295 294 291 287 282 281 282 285 285 287 287 284 281 282 284 284
301 289 285 291 302 304 295 293 293 296 297 297 297 296 295 298 299 298 298 298 295 294 291 291 289 289 288 286 288 286 290 288 286 281 282 283 283 283
323 323 320 313 307 304 299 297 297 296 294 296 293 293 296 298 299 296 293 291 290 291 289 289 288 288 289 289 289 289 289 287 288 284 281 282 282 283
332 329 326 323 322 319 317 314 311 309 307 306 304 303 302 302 297 295 295 294 293 291 284 281 288 286 290 289 289 290 288 290 284 284 283 284 285 285
347 344 342 338 336 333 325 322 318 316 314 307 301 298 297 295 294 294 289 286 286 286 285 282 288 288 288 288 288 290 288 280 287 285 287 288 288 288
354 351 349 348 345 341 336 329 324 324 317 308 305 304 304 304 302 296 293 285 284 286 289 279 284 283 281 285 288 285 283 292 288 295 299 294 293 288
3 358 356 352 347 342 337 331 322 317 317 314 310 306 304 307 311 305 294 285 281 280 289 285 280 274 272 280 288 294 296 298 297 301 304 301 295 297
3 357 352 348 342 339 336 334 330 328 327 325 323 320 318 317 308 299 291 289 290 282 284 284 277 279 277 275 286 294 295 299 302 309 304 304 301 300
357 352 346 344 342 341 341 341 339 339 338 335 331 327 318 313 311 310 307 302 299 288 282 277 270 275 276 280 286 290 296 299 302 304 305 305 303 309
351 347 347 346 345 345 345 346 346 345 342 335 328 327 328 327 324 325 322 319 311 305 297 279 275 279 281 284 286 288 295 296 307 306 308 306 307 311
347 345 348 349 349 350 350 349 348 345 343 337 334 330 329 328 328 329 329 326 315 315 303 303 304 296 292 288 287 294 301 302 305 310 312 309 310 314
347 348 347 347 347 347 346 344 343 341 340 339 337 337 335 332 331 331 337 329 328 324 319 313 310 305 298 293 294 305 302 305 310 313 309 309 311 317
344 343 342 341 341 342 341 339 338 339 339 339 338 337 336 334 334 333 330 327 326 323 317 313 312 306 301 301 309 306 300 308 313 310 313 314 311 316
338 337 338 339 339 339 338 338 337 338 338 339 337 337 336 333 333 335 325 325 327 321 318 319 311 304 306 306 308 315 323 320 320 320 317 313 311 316
335 335 336 336 336 336 337 336 336 337 340 338 337 335 335 331 329 322 327 328 322 318 318 316 314 313 310 311 312 320 326 332 327 316 314 311 314 320
334 332 334 334 335 335 335 335 338 340 342 342 340 338 336 336 329 332 332 328 326 325 325 327 324 323 324 325 326 329 329 331 328 324 317 296 297 296
328 327 329 331 333 334 334 336 337 340 344 345 342 343 345 340 339 336 337 339 343 346 345 342 342 340 336 336 339 341 337 336 339 346 350 333 309 298